Wind_Speed
11 12 13 13 13 12 11 10 9 8 9 8 8 8 8 8 8 9 10 11 13 14 15 15 15 14 12 12 12 13 12 11 11 12 13 14 14 14 14 13 13 15 15 15 14 13 13 13 12 12 12 12 12 14 15 16 16 16 17 19 21 20 20 22 22 21 19 19 20 19 19 18 17 18 18 18 18 18 18 19 19 18 19 18 18
12 13 13 13 13 13 12 11 9 8 8 8 8 8 8 8 9 9 10 12 13 15 15 16 15 13 12 12 13 13 12 10 11 12 13 13 14 14 13 12 13 14 14 14 14 13 13 13 12 12 12 11 12 14 16 18 18 17 19 21 21 20 20 21 21 19 17 17 18 18 19 18 17 16 17 17 18 18 18 19 18 18 18 17 18
14 13 13 13 13 14 13 11 9 8 7 8 8 9 9 9 9 9 11 12 13 15 16 17 15 13 13 12 13 12 11 11 11 12 13 13 13 14 13 12 12 13 14 14 13 13 13 12 13 13 12 11 13 14 16 18 18 17 18 20 19 19 19 20 21 18 15 16 18 19 19 17 18 17 17 17 17 17 17 19 18 18 17 16 17
14 13 14 13 13 14 13 11 9 8 7 8 8 9 9 9 10 10 11 12 13 14 16 17 15 13 12 13 13 12 10 11 11 12 12 12 12 13 13 12 12 13 14 14 13 13 13 13 13 13 11 11 13 14 15 17 17 16 17 17 16 19 21 22 22 20 18 20 20 18 17 17 19 18 17 17 17 16 17 18 17 17 16 16 17
14 13 14 14 14 14 13 12 10 8 7 8 9 9 9 10 10 11 12 12 13 14 16 16 15 13 12 12 13 11 10 10 10 11 12 12 12 11 11 11 13 14 14 14 14 13 13 13 12 12 11 12 13 14 14 16 16 16 17 17 18 21 24 23 22 19 18 19 18 18 18 18 18 17 17 17 17 17 17 17 16 16 16 16 17
15 14 15 14 14 14 13 12 9 8 8 8 9 9 9 9 10 12 13 13 14 14 16 16 14 13 12 12 12 11 11 11 10 10 12 12 11 11 10 11 13 15 15 14 13 13 12 12 12 12 12 12 13 13 14 15 15 15 17 20 21 21 22 20 18 16 14 13 16 17 16 15 15 16 16 16 17 16 16 16 16 16 15 15 16
14 16 16 15 15 14 14 12 10 9 8 9 9 10 9 8 10 12 14 14 15 16 17 17 15 13 12 11 11 10 11 10 10 11 12 12 12 11 12 12 12 13 14 13 12 12 12 12 12 12 12 12 12 13 14 14 14 15 18 21 20 18 18 18 14 13 11 11 15 15 14 14 14 15 15 15 15 15 15 15 15 14 14 14 15
14 16 16 16 16 15 15 13 12 11 9 9 10 10 9 8 10 12 15 15 15 17 18 17 15 14 13 12 11 10 11 10 11 11 12 12 12 12 13 12 12 12 13 12 11 11 11 12 12 12 12 12 12 13 14 13 14 16 18 20 19 17 18 17 13 10 8 10 14 13 13 14 13 14 14 15 14 14 14 14 15 14 15 14 15
16 16 15 16 18 16 15 14 13 12 11 9 10 10 9 8 10 12 14 15 15 17 18 18 16 14 14 13 12 11 11 11 11 12 12 12 12 13 13 13 12 12 12 12 11 11 11 12 12 12 12 12 13 13 13 12 13 15 16 18 18 18 18 18 15 12 11 13 14 12 14 14 13 14 13 13 13 14 14 14 14 14 14 14 14
17 15 14 17 19 17 15 15 14 13 11 10 10 9 9 9 10 12 14 15 16 18 19 18 16 15 15 13 12 11 11 12 12 12 12 11 12 13 13 13 13 12 11 11 11 11 11 12 12 12 12 13 13 12 12 11 11 12 13 16 18 18 16 15 15 14 13 13 14 14 15 15 15 13 11 12 13 13 12 14 14 12 12 13 14
16 15 14 19 19 17 16 15 15 13 12 11 10 9 9 9 10 13 14 16 18 19 19 18 16 15 15 13 12 12 12 13 13 12 12 11 12 13 13 13 13 12 11 11 11 10 10 12 12 12 12 13 12 12 12 11 10 10 12 15 16 14 13 11 9 11 12 11 12 14 15 13 14 13 12 13 12 11 11 13 14 13 12 13 14
13 14 15 21 19 17 17 15 15 13 12 11 10 10 9 10 11 14 16 17 18 19 19 18 16 16 15 13 12 12 13 14 13 12 12 12 12 13 13 13 13 12 12 11 10 9 9 11 11 12 12 13 12 12 12 11 11 10 12 13 12 12 11 9 8 10 13 12 12 15 15 14 14 13 12 12 12 12 13 13 13 13 13 14 14
13 13 14 20 19 18 17 16 15 14 12 10 9 10 9 9 10 14 17 18 18 18 18 17 17 16 15 14 13 12 13 14 14 13 12 12 13 13 13 13 13 12 12 11 9 8 9 10 11 12 12 13 12 12 12 12 12 12 12 11 9 9 10 8 8 10 11 11 13 13 13 14 15 13 11 12 12 12 12 12 12 13 13 14 13
14 12 14 18 19 17 17 16 15 14 12 10 10 10 9 9 10 14 17 17 17 17 17 17 16 16 15 14 13 12 13 14 13 13 12 12 12 12 12 12 12 12 12 10 9 8 9 9 10 11 12 13 13 13 13 12 12 13 12 10 8 7 8 7 8 10 9 9 13 11 9 12 15 13 11 11 11 11 12 12 12 11 12 13 13
15 14 16 18 17 17 16 15 14 13 12 10 9 10 9 9 9 11 14 15 15 16 17 16 16 15 15 14 13 12 12 13 13 12 11 11 11 11 12 12 12 12 11 10 8 8 8 9 9 11 12 12 13 13 13 12 12 13 12 10 8 6 6 9 11 10 9 9 12 10 9 12 13 12 10 11 11 11 12 12 11 11 12 12 12
17 15 14 16 16 16 16 14 14 13 11 9 9 10 10 9 8 8 11 13 14 15 16 15 15 15 14 13 12 12 12 12 11 11 11 10 10 11 12 12 12 12 11 9 8 8 8 9 9 11 12 12 13 12 12 11 12 12 11 11 9 7 8 11 12 10 10 9 10 9 10 11 12 12 10 10 11 10 11 11 11 11 11 11 11
17 16 13 11 12 15 15 14 14 12 10 10 9 10 11 9 7 8 10 12 13 14 14 14 15 14 12 12 12 12 11 11 10 10 10 10 10 11 11 12 12 11 10 8 8 8 8 9 10 11 12 12 12 12 12 11 11 10 11 11 10 11 10 11 12 10 9 10 13 11 10 11 11 12 11 9 10 11 10 10 10 10 10 11 11
18 17 15 12 9 10 14 14 13 11 9 10 10 10 11 10 8 8 9 11 12 12 13 13 13 13 12 11 12 12 11 10 10 10 10 10 10 11 11 12 12 10 9 8 8 8 8 10 11 12 12 12 12 11 11 10 10 9 9 10 12 14 11 10 11 10 9 9 14 12 10 11 10 12 12 10 10 10 9 9 9 10 10 11 10
18 17 15 12 10 9 11 12 10 9 9 11 11 11 10 10 8 8 9 9 10 11 12 12 12 11 11 11 11 11 10 10 10 10 10 11 11 11 12 12 11 10 9 8 7 8 8 10 12 12 12 11 11 10 10 9 9 8 7 9 12 12 9 9 9 9 9 8 10 11 11 11 10 11 11 10 10 9 8 9 9 9 10 10 9
15 16 15 13 11 9 9 7 6 6 8 9 10 11 11 10 9 8 8 8 8 9 10 10 11 11 11 11 11 11 10 10 11 12 11 11 11 11 11 12 11 10 9 8 7 8 9 10 12 12 11 11 10 9 8 8 8 6 5 7 11 8 8 9 9 9 11 9 7 8 10 10 10 11 10 10 10 8 9 9 8 9 9 9 8
12 12 12 13 12 9 8 6 5 3 5 7 8 9 11 11 9 9 9 8 8 9 9 9 9 10 11 11 11 11 10 11 13 13 13 13 12 11 11 12 11 9 9 8 7 8 9 11 12 12 11 10 9 8 7 6 7 6 4 6 9 8 10 8 7 8 9 9 6 6 7 7 10 11 9 10 9 8 9 8 8 10 9 8 8
11 10 8 9 10 9 8 6 6 4 3 5 6 7 11 13 11 10 8 8 8 7 7 8 9 10 11 11 11 11 11 12 13 14 14 14 13 12 12 12 10 9 9 8 8 9 10 11 12 11 10 10 9 8 8 6 7 6 5 7 10 9 9 4 4 5 7 9 8 6 5 5 10 12 9 9 9 9 9 8 8 8 7 7 7
12 9 8 6 6 6 8 8 7 5 3 4 5 6 10 13 11 9 8 8 8 7 7 7 9 10 11 11 11 11 12 12 13 14 14 14 14 12 12 12 11 10 10 9 9 9 10 12 11 11 10 10 10 10 8 7 7 6 7 9 9 8 6 4 4 5 8 9 8 6 4 6 11 12 9 8 8 9 9 7 6 6 5 7 7
13 9 7 6 5 5 6 7 7 5 4 6 5 5 9 11 11 10 9 8 7 8 8 7 8 9 11 11 12 12 12 14 14 13 13 13 14 14 13 13 12 11 11 10 10 10 10 11 11 11 11 12 11 12 10 7 6 6 8 10 7 5 5 6 5 6 9 8 7 5 3 7 12 13 10 9 8 8 9 6 6 6 5 6 7
13 9 7 5 5 4 4 5 5 5 5 7 7 6 9 9 9 11 11 9 7 8 8 8 9 10 11 11 12 13 12 14 13 13 13 14 15 15 14 14 13 12 12 11 11 11 11 11 12 13 13 12 12 13 13 10 6 5 7 7 3 3 5 5 4 6 9 7 6 3 2 7 12 12 10 10 8 8 8 6 5 4 2 3 5
13 10 8 5 5 5 4 4 3 5 4 4 6 6 8 8 7 9 10 10 8 7 8 8 10 11 10 8 9 10 10 11 12 15 16 16 17 16 15 15 14 14 14 13 12 13 13 13 12 13 12 12 13 11 13 12 6 5 5 4 3 5 7 6 4 5 7 7 6 4 3 6 13 12 10 10 9 8 8 6 4 2 1 1 3
12 10 8 5 5 5 5 4 3 4 2 4 7 5 7 7 6 8 8 9 9 6 7 9 10 9 5 6 9 11 11 11 12 16 18 18 18 17 17 16 16 16 16 15 14 14 16 15 11 12 11 10 12 9 10 9 6 6 7 5 4 6 8 7 6 6 6 6 5 2 2 5 10 13 10 10 9 8 8 7 5 2 2 0 3
12 10 8 6 6 5 5 5 4 2 2 4 8 8 5 2 3 7 6 7 8 6 7 9 9 7 5 6 10 11 11 11 12 14 15 16 17 20 19 17 16 17 18 17 17 16 17 17 13 13 12 9 10 9 9 8 6 6 7 7 6 6 8 7 8 10 7 5 5 2 2 4 7 12 12 11 9 9 9 8 6 3 1 1 2
12 10 9 7 6 5 6 6 5 2 2 4 6 10 9 5 4 0 4 6 7 6 5 5 4 3 3 7 8 8 9 10 12 11 12 13 15 21 21 18 18 19 19 17 17 16 16 18 15 14 13 10 10 9 8 8 8 6 6 8 8 6 7 7 7 9 8 6 7 5 4 4 5 9 11 12 11 9 9 9 6 4 3 3 1
12 11 9 8 7 6 6 5 5 4 3 3 5 6 6 5 6 6 2 3 7 7 6 3 1 1 1 2 3 6 9 11 12 11 12 13 13 18 23 22 19 18 19 16 16 16 14 16 16 13 11 10 10 10 8 8 9 8 7 7 7 7 7 8 7 7 9 10 9 7 6 5 5 6 8 12 13 10 9 9 8 6 5 5 4
12 11 10 8 8 8 8 6 6 7 5 4 6 5 4 5 3 5 6 3 3 5 9 5 2 2 1 2 3 3 7 10 10 10 11 13 13 16 21 23 19 15 14 13 14 15 14 14 15 12 10 9 9 11 10 8 7 8 9 8 7 8 8 8 8 7 9 11 11 8 8 6 4 5 6 10 13 13 11 10 10 8 6 6 6
13 12 11 9 9 10 9 8 7 8 8 7 6 5 4 5 3 4 5 3 5 5 5 6 4 5 3 5 8 3 3 7 8 9 9 11 14 16 17 19 19 16 12 10 10 12 13 14 14 13 13 10 8 11 11 8 7 7 7 9 9 9 8 9 9 8 8 11 11 9 8 7 6 5 6 9 11 14 14 12 11 10 8 7 6
14 13 12 11 11 11 10 9 8 8 9 8 7 5 4 4 4 5 4 3 3 4 3 2 5 5 5 7 11 5 4 4 5 7 9 10 12 14 14 16 18 16 14 13 10 11 12 13 14 14 13 11 8 9 11 10 7 7 9 9 11 11 9 8 9 10 9 10 10 9 10 9 7 6 6 8 9 13 16 15 14 11 10 9 7
15 14 13 12 11 11 11 11 10 10 9 8 8 7 5 5 6 5 5 5 3 3 4 3 3 2 2 8 12 8 4 5 3 4 7 9 10 10 12 15 16 15 16 16 13 12 12 11 13 12 11 9 9 8 9 8 6 8 11 11 11 13 12 10 10 12 10 9 10 10 10 10 9 8 7 8 7 10 14 15 17 14 11 11 10
17 16 15 13 13 12 12 12 11 11 10 10 9 8 8 8 8 7 5 5 3 3 4 2 3 5 3 3 7 8 4 4 5 4 5 6 9 10 9 11 13 15 16 15 13 12 11 11 11 10 10 10 10 10 10 7 7 9 11 11 11 10 13 13 11 12 12 12 12 10 9 10 10 10 9 8 7 8 11 14 17 17 15 13 12
19 18 17 15 14 13 13 13 11 11 10 10 9 9 9 9 8 7 7 7 5 4 4 2 3 5 4 4 1 4 3 2 4 5 5 6 7 9 8 8 9 13 13 13 14 13 11 12 11 10 11 12 11 11 13 11 10 11 11 11 12 12 11 14 14 13 14 14 14 12 10 9 9 8 8 9 9 8 10 13 16 18 18 15 12
21 20 19 17 16 15 14 13 11 10 9 8 8 8 8 7 8 8 7 7 7 5 3 3 3 4 4 4 2 2 2 1 2 4 5 6 7 7 8 8 9 11 10 10 14 15 13 11 11 12 12 12 11 11 13 15 14 12 11 10 10 13 12 12 14 13 14 14 14 14 13 12 9 8 8 10 9 8 10 12 15 17 18 17 14
22 22 20 19 18 16 14 12 11 9 8 8 7 8 8 7 8 8 7 7 7 6 4 4 4 3 3 3 1 2 2 1 1 3 5 6 7 7 7 7 8 10 10 11 13 16 16 12 10 12 11 12 12 12 9 9 11 12 13 12 10 12 14 13 13 13 14 15 15 16 15 14 15 13 12 10 8 9 11 13 15 16 18 17 16
24 23 21 20 18 16 14 13 11 9 8 7 8 9 9 8 7 7 8 7 7 6 5 4 3 3 4 3 2 2 1 1 2 1 4 4 3 6 8 9 8 8 9 12 14 15 16 14 11 11 12 12 13 13 10 8 10 13 11 15 14 13 14 15 14 14 16 17 17 17 15 16 18 17 16 14 12 11 11 14 16 17 18 18 18
23 23 22 20 19 17 15 13 11 10 7 5 7 8 8 8 7 6 6 8 7 5 5 4 3 4 4 2 1 2 1 2 2 1 1 2 3 3 6 9 10 9 8 10 11 13 15 16 15 13 13 13 13 14 12 10 11 17 13 12 14 12 14 16 16 15 15 18 19 17 16 17 17 17 17 17 16 14 13 14 16 17 18 19 19
22 22 21 20 19 18 16 14 12 11 7 6 6 6 6 6 6 5 5 7 7 6 6 5 3 2 2 2 1 1 2 3 3 2 1 2 3 3 4 6 7 9 10 11 12 13 15 16 15 14 15 15 16 17 14 12 11 13 11 8 11 10 12 15 17 17 17 18 19 18 19 19 17 17 17 17 17 16 16 16 16 17 17 18 18
22 22 20 19 19 18 16 15 13 10 7 7 8 7 5 5 5 4 4 5 6 6 6 4 4 3 2 3 2 2 1 3 2 2 2 2 2 2 3 5 6 6 8 11 14 16 16 16 15 14 16 17 18 19 17 14 10 8 7 5 5 9 13 16 17 18 19 19 18 19 22 21 19 19 18 18 18 17 17 18 17 16 17 19 19
23 23 21 19 18 17 17 16 14 12 9 9 9 8 7 7 6 5 4 4 4 5 6 5 5 3 2 2 2 1 0 2 2 3 3 2 3 3 3 4 5 6 8 8 10 13 15 17 18 17 16 16 17 18 18 17 12 9 7 6 4 5 8 13 17 19 21 22 21 21 22 21 21 20 19 18 19 20 19 20 19 17 18 21 20
24 24 22 21 20 18 17 17 15 14 12 11 11 10 8 7 6 5 5 6 5 5 6 5 4 3 2 2 1 1 2 2 2 3 3 3 4 3 3 4 5 6 7 8 8 10 11 14 17 19 18 17 19 18 17 20 19 13 5 3 5 4 4 9 15 22 25 24 24 24 22 22 22 22 20 20 20 20 21 21 21 20 20 21 19
24 25 25 23 21 20 18 18 17 15 14 13 13 11 9 7 7 5 5 7 7 6 5 4 3 3 2 1 0 1 1 2 2 2 3 4 5 4 3 4 6 7 8 8 9 10 10 11 13 17 21 22 23 20 16 18 23 23 15 6 4 3 3 4 9 16 23 24 24 25 24 23 23 23 22 22 21 21 22 22 22 21 22 22 20
24 25 27 24 22 21 19 19 18 16 16 16 14 11 9 8 8 8 8 8 7 7 5 4 4 2 1 0 1 1 1 1 1 2 3 4 5 4 5 5 6 8 9 10 10 11 12 13 13 15 20 24 26 23 19 19 22 25 24 19 15 10 6 5 3 4 15 23 25 23 24 25 24 23 22 22 23 23 24 24 23 22 22 22 22
23 24 27 26 22 22 21 20 19 17 17 17 15 12 11 10 9 7 6 5 6 7 5 4 4 2 1 1 1 1 1 1 1 1 2 3 3 4 5 6 7 8 9 11 12 12 12 12 13 15 18 21 24 24 24 23 21 20 23 25 25 22 17 12 7 3 5 13 20 22 22 24 25 23 23 23 23 24 25 25 23 23 24 23 22
24 23 26 26 23 22 22 22 20 18 19 18 17 15 13 12 10 7 6 5 5 7 5 4 4 3 2 1 1 1 1 1 1 2 2 2 3 4 5 6 8 9 10 11 12 12 13 13 13 14 17 19 22 25 26 25 21 20 23 24 24 24 23 20 16 12 5 2 10 16 19 23 25 25 25 24 23 23 25 25 22 23 26 26 24
26 24 24 25 24 23 23 23 21 19 20 19 19 16 14 14 12 9 9 7 6 7 7 6 4 4 4 2 1 1 1 1 1 2 3 3 3 4 6 7 7 8 10 11 12 13 14 15 14 13 15 17 21 23 26 25 23 24 25 23 23 24 25 24 21 16 10 5 4 6 12 17 20 23 26 26 24 23 22 22 21 22 23 23 23
26 25 24 24 24 22 23 25 22 21 21 20 20 17 15 15 13 11 10 9 8 7 7 8 6 5 4 3 2 2 2 1 2 2 3 4 4 5 5 7 7 9 10 11 13 14 15 15 15 16 16 17 19 21 25 26 25 26 26 23 21 20 19 19 19 17 13 8 4 3 7 9 10 16 24 28 28 26 24 22 22 24 23 20 19
25 25 23 23 24 23 23 25 23 21 22 21 20 18 17 16 14 12 11 10 9 9 7 7 7 6 5 4 3 3 3 3 3 3 4 4 4 5 5 6 8 9 10 10 12 14 15 15 15 16 17 18 19 19 22 24 26 27 27 26 25 22 19 16 18 19 14 7 4 4 6 5 4 9 17 25 30 30 28 25 24 25 26 23 19
Wind_Direction
117 124 131 125 116 106 100 94 92 89 86 92 108 124 131 141 148 153 153 150 151 151 153 154 153 149 144 144 141 139 136 125 124 122 120 122 122 121 115 113 114 112 112 110 107 104 99 94 94 98 99 98 96 92 91 93 99 102 102 103 99 97 100 98 95 94 92 88 86 84 82 82 80 77 76 74 78 84 85 82 80 80 77 74 72
127 127 135 130 119 109 101 96 93 90 89 89 104 126 136 144 153 158 156 154 156 156 156 158 157 151 148 148 146 144 141 131 129 127 126 126 125 124 117 117 120 117 114 112 110 105 99 96 98 102 102 103 100 97 97 98 102 103 105 109 105 105 105 103 101 98 94 90 89 85 80 78 75 75 78 76 84 95 91 83 81 83 81 76 74
124 126 136 132 121 112 103 100 98 95 97 93 102 126 141 149 157 162 158 158 161 160 159 160 159 154 151 152 151 150 146 138 134 132 134 131 127 129 125 125 126 121 117 114 110 105 100 101 105 106 107 108 106 102 102 104 106 104 107 115 113 107 103 101 98 96 97 95 94 88 81 76 75 76 78 76 82 92 88 82 82 83 81 78 74
122 129 136 133 122 114 106 103 104 101 101 99 102 119 143 155 158 162 159 161 165 165 164 163 161 157 156 156 155 154 150 142 137 137 140 136 133 137 138 137 132 125 121 117 111 108 105 107 110 110 111 113 111 107 108 112 114 108 108 115 113 103 98 96 93 100 104 96 93 86 80 79 78 77 77 77 78 82 83 81 82 83 81 78 74
114 129 135 136 125 117 112 107 110 109 104 99 100 113 138 153 160 164 160 162 166 168 166 165 163 158 161 159 158 158 151 142 138 141 144 141 139 142 143 139 134 130 126 121 115 112 111 111 112 112 113 115 115 112 114 119 120 112 106 109 108 101 96 93 93 103 110 98 89 80 79 81 81 80 78 80 79 80 83 81 82 82 79 76 73
113 133 136 137 130 122 118 115 115 108 103 101 100 110 130 151 163 167 165 165 166 167 165 167 165 159 163 163 161 159 151 142 140 146 147 144 143 140 136 133 132 132 130 124 121 117 116 114 113 113 114 117 116 115 118 121 122 114 106 108 106 101 95 92 94 102 111 99 89 85 83 82 82 82 80 81 81 81 83 81 81 81 78 76 74
125 139 136 133 135 130 126 124 120 110 103 104 105 111 125 149 166 170 170 167 167 168 167 168 167 162 164 165 164 159 150 145 144 150 153 147 146 143 135 133 132 131 130 127 125 123 120 117 116 116 118 120 119 119 121 120 120 115 112 113 107 98 93 92 94 98 104 96 93 93 87 85 84 82 82 81 82 83 83 83 80 77 73 72 73
124 135 134 132 140 138 134 134 129 120 113 110 108 113 123 141 158 171 172 168 169 170 169 168 167 166 165 165 166 161 150 148 149 152 157 150 149 148 138 137 137 134 131 129 128 127 125 122 121 121 122 124 124 124 124 120 116 115 117 120 110 96 92 88 84 83 86 93 97 99 97 94 90 85 83 82 81 84 84 83 81 79 76 74 74
116 126 132 137 145 144 141 141 135 128 126 124 117 118 124 133 149 167 173 168 167 170 170 168 167 166 166 167 166 161 152 151 150 152 157 153 151 148 142 141 139 137 134 130 129 130 128 126 126 126 128 129 129 129 125 119 115 116 118 123 115 102 97 88 79 70 72 91 93 97 103 99 94 88 82 81 83 90 93 87 84 84 83 77 74
116 122 131 144 150 150 149 145 137 135 136 133 126 126 124 126 141 156 169 168 166 170 169 166 167 166 166 169 166 160 155 153 152 152 154 155 155 150 149 146 142 142 138 133 133 135 133 131 131 131 133 132 132 131 124 117 113 117 119 124 118 107 103 97 91 79 78 91 92 99 106 101 97 90 85 84 87 98 100 90 85 84 83 78 76
117 121 136 149 153 153 152 147 142 142 144 141 136 134 129 125 133 146 159 165 166 169 168 166 169 168 167 171 168 161 158 157 154 153 151 156 159 155 156 152 149 149 144 141 143 142 138 136 135 136 138 134 135 130 121 116 109 112 120 126 123 113 105 102 92 79 85 90 94 109 108 103 97 92 92 89 88 94 91 87 85 83 82 78 76
116 119 138 150 155 158 154 150 148 150 153 150 145 141 134 128 132 142 154 162 166 168 168 168 171 171 171 174 170 161 159 159 156 155 153 156 160 159 159 155 154 154 150 150 150 144 139 139 139 142 143 137 137 131 122 116 106 109 121 125 124 113 103 100 78 75 97 102 107 118 108 99 96 93 94 91 90 90 88 89 86 83 83 80 78
113 115 138 154 158 159 157 157 155 157 158 152 144 137 133 132 135 143 155 164 167 170 171 170 172 173 174 174 170 162 160 162 159 159 158 154 156 158 157 156 156 156 156 156 154 147 140 141 143 145 144 139 138 133 125 117 109 114 121 119 119 111 107 100 76 87 104 110 121 123 106 95 96 96 94 94 94 93 93 92 89 88 89 85 82
115 124 145 158 161 163 162 163 162 161 159 154 142 130 130 135 139 148 157 165 168 170 173 174 173 175 175 174 171 165 164 166 162 162 162 157 157 158 159 161 160 161 163 162 158 150 141 139 145 148 146 140 139 135 127 120 113 118 122 117 114 108 105 82 70 102 106 104 119 117 100 94 100 102 96 96 95 95 96 94 94 97 97 90 86
108 131 154 163 166 168 166 167 168 167 166 160 145 130 127 131 136 149 157 163 169 169 172 174 174 176 174 173 172 169 170 170 165 165 167 164 163 163 166 168 167 170 171 167 161 153 145 142 149 154 150 143 140 137 129 122 117 122 126 120 119 103 81 66 68 101 105 103 118 117 108 98 104 109 100 101 101 99 98 97 96 96 98 94 90
99 115 146 168 173 172 170 175 175 174 172 165 152 137 129 130 136 149 159 165 170 171 172 174 173 174 172 173 175 173 176 176 172 170 171 172 170 169 171 175 174 176 175 169 162 154 146 146 156 158 153 146 142 139 130 124 120 125 132 130 126 93 67 70 75 100 111 120 137 133 116 104 110 114 105 104 104 102 100 101 99 97 99 97 94
99 99 111 144 169 177 176 183 184 182 180 171 163 151 142 139 147 156 165 170 171 172 172 173 171 172 171 175 178 178 181 181 180 175 177 179 178 177 175 179 181 179 175 167 160 153 146 146 156 156 151 146 142 140 132 128 123 123 134 136 121 92 75 70 72 99 109 122 141 134 117 113 118 115 111 112 107 106 106 107 105 101 102 100 95
104 96 95 108 129 163 178 187 187 186 186 178 171 164 155 147 154 163 169 173 173 172 170 172 172 174 176 178 181 184 185 182 182 182 185 184 182 184 180 182 185 183 176 168 159 153 150 148 154 154 148 145 143 142 136 131 124 118 131 139 121 98 83 70 75 105 103 109 132 124 112 114 117 117 117 120 115 114 112 109 108 103 102 100 95
107 105 101 101 101 120 161 181 183 188 190 182 178 173 165 155 160 168 170 173 175 175 173 174 177 181 181 182 183 183 188 188 186 189 194 192 186 187 184 184 186 186 183 176 159 154 156 153 157 156 149 147 146 145 140 136 127 117 125 141 136 111 81 63 72 117 120 112 123 113 108 110 111 118 122 124 120 118 113 110 109 106 105 101 96
98 108 110 108 102 101 124 153 167 190 190 177 181 183 177 167 165 170 173 173 176 180 179 182 185 189 188 185 185 186 194 196 193 196 201 198 191 189 185 184 185 186 188 182 163 157 160 157 158 155 150 150 149 150 147 144 136 126 123 134 152 138 78 58 64 107 131 128 120 108 108 114 116 118 127 130 124 120 115 113 111 108 108 103 96
85 97 112 117 113 106 107 120 127 154 175 168 182 184 182 177 172 177 178 178 180 182 182 186 188 192 195 189 189 194 199 201 199 199 203 201 195 191 183 182 184 183 186 182 167 158 160 161 159 156 153 152 151 153 154 159 151 146 141 128 149 130 75 75 85 97 130 136 131 123 113 124 127 124 132 132 126 124 120 121 117 109 109 102 94
98 84 88 103 109 116 121 117 110 119 150 169 184 177 180 182 179 180 182 189 184 182 184 187 190 193 197 194 196 199 197 204 204 200 203 200 197 193 182 181 183 180 180 179 168 160 164 166 162 160 159 156 154 154 151 156 161 162 159 142 146 119 83 110 111 82 137 142 131 126 115 128 130 130 138 135 130 125 127 138 130 119 116 107 95
112 96 82 82 82 97 112 114 109 116 129 155 185 184 186 186 184 183 180 190 186 189 192 191 195 194 199 201 205 206 202 210 208 200 201 200 199 197 185 182 184 182 178 176 169 161 166 172 172 169 171 172 166 164 153 141 154 162 164 156 148 126 118 160 117 104 150 143 125 116 114 135 134 137 142 139 139 130 134 149 137 127 127 115 102
110 102 92 88 73 67 79 100 105 101 112 127 151 167 179 183 185 186 180 185 190 194 194 198 202 200 207 208 212 212 209 216 213 200 197 198 201 198 190 186 185 184 179 175 171 166 167 177 185 184 189 193 186 184 173 149 146 150 166 163 140 122 147 177 154 146 157 137 124 117 118 146 141 143 147 145 149 141 140 152 139 127 124 117 112
113 108 106 107 109 105 84 95 103 101 107 130 144 145 162 175 182 188 186 186 196 200 198 205 204 205 209 206 213 215 217 224 217 206 200 198 203 199 192 190 187 186 182 176 173 172 169 176 188 194 200 206 210 208 188 174 162 136 152 160 150 146 152 174 174 163 165 143 130 126 125 157 150 146 151 152 154 149 144 159 159 132 112 125 131
111 108 111 119 123 126 119 100 92 115 118 143 152 151 171 175 168 180 190 197 202 206 214 216 211 213 208 198 215 225 229 234 226 219 210 200 203 201 195 195 194 191 184 176 177 175 170 174 185 196 207 218 230 221 186 178 169 143 154 164 206 189 160 174 166 150 167 149 127 119 111 161 159 152 154 157 157 156 150 161 177 153 34 136 148
108 108 111 113 108 107 116 109 88 117 129 145 144 149 187 189 171 176 186 200 203 214 231 221 216 226 221 206 227 240 241 239 235 227 215 204 202 200 202 202 199 198 189 178 184 181 175 181 191 201 213 224 229 213 182 177 158 167 183 178 200 187 164 176 173 161 174 153 134 121 112 166 168 159 160 163 163 164 158 164 185 244 297 160 134
110 110 113 108 94 85 86 93 90 84 53 123 134 112 115 150 176 186 192 200 199 211 234 227 227 238 248 236 233 239 238 232 233 225 213 211 205 202 204 202 203 207 199 187 191 190 183 194 204 208 220 224 210 194 190 188 179 191 194 186 197 186 168 181 174 166 181 171 162 186 150 163 174 169 166 166 171 172 167 175 195 234 259 151 117
114 111 114 109 100 92 84 85 83 75 64 94 121 105 91 64 41 95 214 218 209 212 231 235 251 264 259 248 231 225 223 220 224 219 217 219 211 210 207 201 207 210 206 199 198 195 191 202 211 215 223 218 195 185 193 192 192 208 210 203 200 189 186 197 183 166 190 210 189 189 174 154 164 177 176 171 177 180 177 182 191 192 172 170 169
120 118 116 109 106 104 100 101 83 83 114 77 77 88 84 71 35 25 43 234 233 238 240 217 326 28 60 261 223 208 219 223 220 211 220 226 214 213 211 208 214 212 206 206 204 202 200 202 208 216 218 208 193 186 197 203 197 202 214 221 206 202 205 201 202 185 193 207 195 180 177 170 161 177 187 181 180 182 188 190 189 190 185 189 199
128 124 119 113 112 108 97 99 93 80 94 96 80 71 69 85 48 45 71 31 326 276 254 241 0 3 346 281 247 206 215 223 220 210 214 221 212 211 216 217 223 225 211 207 210 209 207 205 208 214 212 211 202 187 198 220 218 205 201 213 214 214 215 201 209 208 195 198 191 179 179 183 181 180 191 195 189 184 190 198 198 199 198 198 197
129 125 123 117 106 102 92 90 97 78 78 94 97 94 80 90 92 94 92 39 34 18 291 267 339 354 333 262 250 275 240 213 211 220 214 210 209 210 220 220 223 234 224 214 224 217 209 208 211 216 214 218 208 185 189 205 227 240 219 212 210 212 216 205 210 217 204 198 194 193 195 193 201 202 188 196 200 191 188 192 202 207 204 207 203
127 127 126 121 108 104 100 95 96 82 79 83 91 106 90 91 103 89 81 79 95 64 30 310 326 338 337 284 257 271 302 247 203 213 217 213 215 211 212 216 221 231 224 219 227 223 219 214 215 223 219 219 215 187 180 182 200 247 251 234 211 206 215 209 212 225 217 204 203 205 205 202 205 206 190 194 203 199 196 193 198 208 208 209 208
129 134 131 128 123 117 110 103 100 94 93 84 86 101 86 83 89 73 73 85 110 119 92 52 15 40 340 302 275 259 280 289 246 206 212 218 226 217 211 217 220 221 221 226 223 216 229 224 215 229 225 214 219 204 187 184 192 225 247 253 224 199 202 212 218 230 230 210 208 207 203 210 210 201 196 200 205 203 207 204 199 202 206 207 208
138 139 138 135 131 127 120 113 107 101 99 93 90 93 83 78 78 70 78 82 76 92 89 66 91 116 134 298 291 278 271 280 267 239 211 212 229 228 221 225 223 219 223 230 219 206 223 229 220 230 224 214 224 217 201 203 216 225 238 252 248 216 198 209 217 226 233 218 214 219 212 212 207 204 206 206 206 203 209 212 205 201 203 208 210
145 143 144 141 135 134 129 122 116 109 103 99 96 94 91 85 82 78 77 79 74 79 78 71 109 110 121 141 180 293 283 263 267 255 228 207 221 230 233 238 227 221 227 229 219 206 208 219 220 220 215 219 235 223 201 203 217 230 235 231 247 253 219 206 211 223 233 220 213 223 225 215 203 208 219 214 214 213 210 212 211 208 207 210 212
149 147 149 147 143 141 138 134 128 122 115 111 105 102 106 99 92 85 80 89 80 64 70 78 93 103 104 123 142 328 330 278 233 247 256 228 214 222 230 233 225 222 232 237 231 222 209 207 212 213 215 223 241 241 209 196 201 214 222 214 230 258 251 219 208 220 235 227 215 222 228 225 221 223 221 216 218 225 223 214 214 217 217 216 214
152 152 154 152 150 149 148 147 143 138 131 129 126 119 117 111 101 84 75 96 89 61 65 85 90 107 98 71 39 46 25 325 223 246 276 264 229 225 221 215 223 226 228 237 238 231 222 217 209 204 214 225 235 252 245 217 219 222 213 205 215 244 259 252 225 216 229 234 226 221 223 226 225 225 226 226 229 239 234 219 215 218 221 222 216
156 158 159 157 155 157 157 155 154 152 141 141 151 144 125 104 93 81 72 83 80 69 74 77 78 92 87 49 19 58 49 13 50 293 277 290 256 240 230 214 216 223 224 232 235 232 227 225 220 208 212 227 234 243 264 280 275 275 241 201 202 220 240 256 248 229 224 234 233 218 219 231 224 217 222 225 227 240 237 220 215 215 219 221 220
161 163 164 164 162 161 162 162 163 160 154 164 176 160 130 103 89 77 72 73 66 77 100 89 77 83 83 65 48 65 3 344 25 12 297 312 313 292 259 234 226 227 230 234 234 234 230 225 226 225 223 232 240 239 255 274 277 295 284 208 192 205 220 239 248 246 234 234 238 224 220 232 223 213 216 217 219 231 236 228 219 217 221 221 221
166 168 171 171 167 165 167 167 168 173 179 174 154 133 113 109 107 87 74 74 62 68 99 103 100 86 86 109 104 92 2 354 3 354 318 294 303 320 300 277 262 247 244 247 245 241 234 228 228 235 235 235 242 244 255 269 268 292 294 217 197 202 214 230 235 242 244 239 241 235 230 234 230 222 219 215 214 218 227 231 225 225 227 221 221
171 174 176 176 171 169 172 170 169 177 182 161 142 133 127 122 113 97 82 85 72 71 95 107 111 108 105 117 112 109 65 18 7 327 307 290 288 283 287 300 305 287 267 259 256 251 243 236 237 243 241 238 245 247 250 261 260 269 287 268 231 217 223 231 228 232 240 242 241 235 234 238 235 228 222 217 213 211 220 226 226 230 226 218 223
175 178 179 179 176 175 175 171 170 173 168 157 154 153 151 139 125 123 113 105 94 92 109 107 98 100 98 118 138 172 217 5 340 310 296 285 288 274 272 281 286 288 285 279 271 266 256 245 243 246 248 246 251 251 245 246 249 255 277 284 252 218 224 230 229 231 231 234 237 232 230 234 234 231 225 221 218 215 217 220 224 228 220 218 226
175 178 181 182 180 181 179 172 171 173 166 162 166 164 160 151 137 132 122 122 127 115 111 101 85 77 87 120 149 258 281 321 330 317 313 312 311 286 277 282 273 271 276 278 276 274 272 263 253 247 246 248 251 252 243 239 241 239 238 265 250 237 225 213 219 228 227 227 231 229 227 228 230 230 226 223 222 220 219 218 222 224 221 222 226
176 178 182 183 182 183 181 173 172 173 170 170 174 175 170 161 153 153 157 155 145 121 107 99 88 84 102 156 172 0 318 323 326 331 324 315 318 304 298 303 285 278 278 277 272 267 263 266 265 251 242 242 245 249 242 232 234 232 224 227 246 240 241 211 213 224 224 224 228 227 224 224 226 226 224 223 223 223 221 219 221 223 222 222 222
180 181 183 184 183 184 182 174 173 176 176 176 178 179 175 173 180 187 190 181 150 122 116 109 105 103 76 68 185 180 291 332 341 337 313 305 315 303 297 306 297 287 285 284 283 277 263 253 255 252 244 240 239 241 241 232 225 226 226 227 230 237 270 296 300 228 216 219 225 226 223 224 226 225 223 222 222 223 221 217 219 222 222 220 217
185 183 181 183 184 183 182 176 175 179 179 178 178 177 178 181 189 191 189 187 149 131 139 135 127 138 85 72 152 189 245 260 281 299 299 298 301 292 288 293 293 291 288 287 287 285 279 268 256 250 248 243 236 234 238 237 229 229 232 233 236 244 258 270 278 277 225 218 223 227 227 225 224 223 224 225 221 221 220 213 213 220 222 221 217
187 184 177 181 186 183 180 177 177 181 181 180 178 178 182 181 182 185 186 188 159 148 161 163 146 149 160 162 154 176 197 202 239 239 254 272 275 280 284 282 281 284 284 284 285 283 282 281 275 263 255 250 241 235 236 237 236 237 236 235 239 246 254 260 261 260 269 221 218 228 231 230 226 220 220 225 224 226 220 208 210 221 221 218 217
185 183 178 179 184 184 179 176 179 181 181 183 180 180 185 179 178 185 186 178 166 170 177 173 168 163 170 180 169 201 210 162 198 221 239 248 255 264 270 275 276 278 281 280 280 283 284 283 284 281 270 259 250 240 237 237 235 233 233 236 241 245 249 255 260 262 265 262 223 222 226 228 231 224 219 222 226 231 224 209 216 224 216 212 214
182 181 179 178 183 184 179 177 181 183 183 185 183 183 186 180 179 186 185 176 174 186 181 170 178 185 182 188 190 207 224 219 212 218 228 229 241 251 256 266 266 268 277 278 278 282 289 289 287 286 283 276 264 248 240 238 236 234 233 233 235 236 238 245 250 251 255 256 243 255 233 215 223 225 221 219 222 230 229 220 221 221 213 211 218
177 178 177 178 183 184 180 178 182 184 185 187 187 186 185 181 184 187 185 183 181 185 182 177 184 190 187 192 203 208 212 225 232 238 240 230 239 252 258 263 262 263 266 271 277 281 287 289 285 282 280 278 276 265 252 242 237 236 234 233 232 231 231 234 236 234 236 235 222 259 250 222 239 238 227 223 223 228 227 221 221 218 213 212 220
Height
783 783 784 784 786 785 787 787 787 787 787 788 788 789 790 791 791 792 793 794 795 796 797 798 799 800 801 801 802 803 805 805 806 807 808 809 809 810 811 812 812 812 813 813 814 814 815 815 817 818 818 819 819 819 820 821 821 822 823 825 827 827 827 827 828 830 832 833 833 834 834 835 835 835 835 835 835 836 836 835 835 836 836 837 837
782 784 785 785 786 786 788 787 789 788 788 789 789 791 791 792 792 793 794 795 796 797 798 799 800 801 802 802 803 804 805 806 807 808 809 810 810 811 812 813 813 814 814 814 815 815 816 816 818 818 820 820 820 821 821 822 822 823 824 827 828 828 828 829 829 831 833 834 835 835 835 836 836 837 837 837 836 836 836 836 836 837 837 838 838
782 785 785 786 786 786 788 787 789 788 789 789 790 791 791 793 793 794 795 797 797 798 799 800 801 802 803 803 804 805 806 807 808 809 810 811 812 813 813 814 814 815 815 815 816 816 817 817 819 819 821 821 821 822 822 823 824 824 825 828 829 829 830 830 831 832 834 835 835 836 836 837 837 838 838 838 838 838 838 838 838 838 838 839 839
783 785 786 786 786 787 787 788 789 789 790 790 791 791 792 793 794 796 797 798 798 800 800 801 802 803 804 804 806 806 807 808 809 810 811 812 813 814 814 815 815 816 816 816 817 817 818 819 820 820 821 822 823 823 824 824 825 826 826 829 830 831 830 831 832 833 835 835 835 836 836 838 839 839 840 840 839 839 840 840 840 840 840 840 840
785 785 785 786 786 787 787 788 788 789 790 790 791 792 793 794 795 796 797 799 799 801 801 803 803 804 806 806 807 808 809 810 810 811 812 813 814 815 815 816 816 816 817 817 818 818 819 820 821 821 822 823 824 824 825 825 826 827 828 830 831 832 831 832 833 834 835 836 837 837 837 839 840 841 841 841 841 841 841 842 841 841 841 841 841
785 784 784 785 786 787 787 788 788 789 790 791 792 792 793 794 795 796 798 799 800 801 802 804 804 805 807 808 809 809 811 811 812 812 813 814 815 816 816 817 817 817 817 818 819 819 820 821 822 822 823 824 825 825 826 826 827 828 829 831 832 833 833 833 835 835 836 837 838 838 839 840 841 842 842 842 843 843 843 843 843 843 843 843 842
783 783 784 785 787 787 787 788 788 789 790 791 792 792 793 794 795 796 798 799 800 801 803 804 805 806 807 809 810 811 811 812 813 813 814 815 816 817 817 818 818 818 818 819 819 820 821 821 822 823 824 824 825 827 827 828 828 829 831 831 833 834 834 835 835 836 837 838 839 840 841 841 843 843 844 844 844 845 845 845 845 845 844 844 843
783 784 785 786 787 787 787 787 788 789 789 791 792 792 793 793 795 796 797 799 800 801 803 804 805 807 808 809 811 812 812 813 814 814 815 816 816 817 818 819 819 820 820 820 820 821 821 822 823 824 824 825 826 828 828 829 830 831 832 832 833 834 835 835 836 837 838 839 840 841 841 842 844 844 845 845 846 846 846 846 846 846 846 845 845
785 785 785 786 787 787 787 787 788 788 789 790 791 792 792 793 794 795 797 798 800 801 803 804 806 807 808 809 811 812 813 814 815 815 816 817 818 818 819 820 820 821 821 821 821 822 822 823 824 824 825 826 827 828 829 830 831 832 833 833 834 834 836 836 837 837 838 840 841 842 842 843 844 845 846 846 846 847 847 847 847 847 847 847 846
785 785 786 786 786 787 787 788 789 789 789 789 791 791 792 793 794 795 796 798 800 801 803 804 806 807 809 810 811 812 813 814 815 816 817 818 819 819 820 820 821 822 822 822 822 823 823 824 824 825 826 827 828 829 830 831 832 833 833 834 834 835 836 837 837 838 840 841 842 843 843 844 845 846 847 847 847 847 848 848 848 848 847 848 847
783 784 785 785 786 786 787 788 789 789 789 790 791 791 792 792 793 795 796 798 800 802 803 804 806 807 809 810 812 813 814 815 815 817 817 819 819 820 821 821 822 822 823 823 823 824 824 824 825 826 827 827 829 830 831 832 833 833 834 835 835 835 836 837 837 839 841 842 843 843 844 844 845 847 847 848 848 848 848 848 849 849 848 848 848
783 784 784 784 785 786 788 789 789 790 790 790 791 792 793 793 793 794 796 798 800 802 803 805 806 808 809 811 813 813 815 815 815 817 818 819 820 821 822 822 823 823 823 824 824 824 825 825 826 826 827 828 829 830 831 832 833 834 834 835 835 836 836 837 838 840 842 843 844 843 844 845 846 847 848 848 849 849 849 849 850 849 849 849 850
783 784 784 785 786 787 788 789 790 790 791 792 792 793 794 795 795 795 796 798 800 802 804 805 807 809 810 812 813 814 815 816 816 817 819 820 821 822 823 823 823 824 824 824 825 825 826 826 826 827 828 829 830 831 832 833 834 835 835 836 836 836 836 837 838 840 842 843 843 843 844 846 847 848 848 849 849 850 850 850 850 850 850 850 850
784 784 785 786 786 788 788 790 791 791 792 792 793 794 796 797 797 797 798 799 801 803 804 806 808 810 811 812 814 815 816 817 817 818 819 820 822 823 824 824 824 825 825 825 825 826 827 827 827 828 829 830 831 832 832 833 834 835 836 836 836 836 836 837 838 840 843 844 843 842 844 846 847 849 849 850 850 851 851 851 851 851 851 851 851
785 784 785 786 787 788 789 791 791 792 792 793 794 795 797 799 800 800 800 801 802 804 805 807 808 811 812 813 814 815 817 817 818 818 820 821 822 823 824 825 825 825 825 826 826 827 827 828 828 829 830 831 831 832 833 834 835 836 836 836 837 836 837 837 838 840 842 844 843 842 844 846 848 849 850 850 851 851 852 852 852 852 851 851 851
785 784 786 786 787 789 790 791 792 793 793 795 796 797 798 799 801 802 803 803 804 805 806 808 809 811 813 814 815 817 818 818 819 819 821 822 823 824 825 825 825 826 826 826 827 827 828 828 829 830 831 831 832 833 833 834 835 836 836 837 837 837 838 837 838 840 843 843 842 843 844 846 848 849 850 851 851 852 852 852 853 853 852 852 852
786 786 786 787 789 790 791 792 792 793 794 796 797 798 799 800 802 803 804 804 805 807 807 809 810 812 814 815 816 817 819 819 820 820 822 823 824 824 825 826 826 826 826 827 827 828 829 829 830 831 832 832 833 834 834 835 835 836 837 837 838 839 839 838 839 841 843 843 842 843 844 846 848 849 851 852 852 853 853 853 853 853 853 853 852
787 787 787 789 789 790 791 792 793 795 796 797 798 799 800 801 803 803 805 805 806 807 808 810 811 813 814 816 817 818 819 820 820 821 823 824 824 825 825 826 826 827 827 827 828 828 829 830 831 831 832 833 834 834 835 835 836 836 837 838 838 839 839 839 840 842 843 843 842 844 845 846 848 849 851 852 852 853 854 854 854 854 854 854 853
788 788 789 790 790 791 792 793 794 795 796 797 799 800 801 802 803 804 805 806 807 808 809 811 812 813 815 816 818 818 820 820 821 822 823 824 824 825 826 826 827 827 827 827 828 829 830 830 831 832 833 834 834 835 835 835 836 836 837 838 838 839 840 840 841 843 844 843 844 844 845 847 848 849 851 852 853 853 854 854 855 855 855 855 854
789 789 790 791 791 792 792 794 795 796 797 798 799 800 801 802 803 804 805 807 808 809 810 811 812 814 815 817 818 819 820 821 821 822 824 825 825 825 826 827 827 827 828 828 829 830 830 831 832 832 833 834 835 835 835 836 836 836 837 838 839 839 840 840 841 843 843 843 844 845 846 847 848 850 851 852 853 854 854 855 855 855 856 855 855
790 790 791 792 792 793 794 795 796 797 797 798 799 800 801 802 803 804 805 807 807 809 810 811 813 814 815 817 818 819 820 821 822 823 824 825 825 825 826 827 827 828 828 828 829 830 831 832 833 833 834 834 835 835 835 836 836 836 837 838 839 839 840 840 841 843 842 843 845 846 847 848 849 850 851 852 853 854 855 855 855 856 856 856 855
791 791 792 792 793 794 794 795 796 798 798 798 799 799 801 802 803 804 806 807 808 809 810 811 813 814 816 817 818 819 820 821 822 823 824 825 825 825 826 827 828 828 829 829 829 830 832 832 833 834 834 834 834 835 835 836 836 836 837 838 839 839 840 841 842 843 842 843 845 846 847 848 849 850 852 852 853 854 855 855 855 856 856 856 856
792 793 793 793 794 794 795 796 796 798 798 799 799 800 801 802 804 805 806 808 809 810 810 812 813 814 816 817 818 819 820 821 822 823 825 825 825 826 826 827 828 829 829 829 830 830 832 833 833 834 834 834 834 835 835 835 836 836 837 837 838 838 840 842 843 842 841 843 845 846 847 848 849 850 852 853 853 854 855 855 855 856 855 856 856
792 794 794 795 795 795 796 797 797 798 798 799 800 800 801 802 804 805 806 808 809 809 810 812 813 814 815 817 818 819 820 821 822 823 824 825 825 826 827 828 829 829 830 830 830 831 832 833 833 834 834 834 834 834 835 835 836 836 837 837 837 838 840 842 842 842 841 843 845 846 847 847 848 850 852 853 853 854 855 855 855 855 855 856 856
793 794 795 796 796 796 797 798 798 798 799 799 800 800 801 803 803 804 806 807 808 809 810 812 812 814 815 816 817 818 820 821 822 823 824 825 825 826 827 828 829 829 830 830 831 831 832 833 833 834 833 833 834 834 835 835 835 836 837 837 836 837 840 841 842 842 841 842 844 845 846 847 848 849 851 852 853 854 854 855 855 855 855 856 856
793 795 796 796 796 797 798 798 799 799 799 799 800 801 801 802 803 804 805 806 807 808 810 811 812 813 814 815 816 818 819 821 823 823 824 824 825 826 827 828 829 830 830 830 831 831 832 832 833 833 833 833 833 834 836 835 835 836 836 837 836 838 840 841 842 842 841 842 843 845 846 847 848 849 851 852 853 854 854 855 854 855 855 855 856
794 795 796 797 797 797 798 799 799 799 800 799 800 801 801 802 803 804 805 806 807 808 809 810 811 813 814 815 816 817 818 821 824 824 823 823 825 826 827 828 829 830 830 831 831 831 832 832 832 832 832 832 832 834 836 835 836 836 836 837 837 838 839 840 841 841 841 842 843 844 846 846 847 848 850 851 852 853 854 854 854 854 855 855 855
795 796 797 797 798 798 799 799 800 800 800 800 800 801 802 802 803 804 805 806 807 808 809 810 811 812 814 815 816 817 818 821 823 824 823 823 824 825 827 828 829 830 830 831 831 831 831 832 832 832 832 832 832 834 835 835 836 836 837 837 837 838 838 840 841 841 840 841 842 844 845 846 847 847 849 850 851 852 853 854 854 854 854 854 855
795 797 798 798 799 799 800 800 801 801 801 801 801 802 802 803 804 805 806 807 807 808 809 810 811 813 814 814 815 816 818 820 822 823 823 821 823 824 827 828 829 830 830 830 831 831 831 832 832 832 832 832 833 834 835 835 836 836 837 837 837 838 839 839 840 840 840 841 842 843 844 845 846 847 848 849 851 852 853 853 854 854 854 854 855
796 797 798 799 800 800 801 801 801 801 801 802 802 802 803 803 804 805 806 807 807 808 809 811 812 814 815 813 814 816 817 819 820 822 821 820 821 823 826 827 827 829 830 830 831 831 832 832 832 832 832 832 833 833 834 835 834 835 836 836 837 837 838 839 840 840 840 839 841 842 843 844 845 846 847 848 850 851 852 853 853 854 854 855 855
797 798 799 799 800 801 801 802 802 801 801 802 803 803 804 805 805 806 807 807 807 808 808 810 813 814 815 814 813 816 818 818 819 820 821 820 821 823 825 826 826 828 829 830 831 832 832 833 832 832 832 832 832 832 833 834 834 834 835 836 837 837 838 839 839 840 840 839 840 841 842 843 844 845 846 847 848 850 851 852 853 854 854 855 855
797 798 799 800 800 801 802 802 802 802 802 803 804 805 805 806 807 807 808 808 808 808 808 810 812 814 815 814 813 815 817 818 819 819 820 821 821 823 825 825 825 826 829 830 830 831 832 833 832 832 832 832 832 832 832 833 833 834 834 835 836 836 838 838 839 840 840 839 839 840 841 842 843 844 845 845 847 848 849 851 852 853 854 855 855
797 798 799 800 801 802 803 803 803 803 803 804 804 805 806 807 808 808 809 809 809 810 810 811 811 814 815 813 813 814 816 818 819 819 820 821 822 823 824 824 825 826 828 829 829 830 831 832 832 832 832 832 832 832 832 832 833 834 833 833 834 836 837 838 839 839 840 839 838 838 840 841 842 842 843 844 845 846 848 849 851 852 853 854 855
797 798 799 800 801 802 803 804 804 804 804 805 805 806 806 807 808 808 809 809 810 811 811 812 813 814 814 813 811 812 815 817 818 820 821 822 822 822 823 823 824 826 827 828 828 828 830 831 831 831 831 831 832 831 831 831 832 833 833 833 833 834 835 837 838 838 839 839 839 838 838 839 840 841 842 842 844 844 846 847 849 850 852 853 854
796 798 799 800 802 802 804 804 805 805 805 806 806 806 807 807 808 808 809 809 810 811 812 813 813 814 815 813 811 811 814 817 818 819 820 822 821 821 822 823 823 825 826 826 827 828 829 831 831 831 831 830 831 831 831 831 832 833 833 832 832 833 834 835 837 838 838 839 839 839 838 838 839 840 840 841 842 843 844 845 847 848 850 852 853
796 797 799 800 802 803 804 804 805 806 806 806 806 807 807 808 809 809 809 810 810 811 812 813 813 815 815 814 813 813 814 817 817 817 818 820 820 820 820 821 822 824 825 825 826 827 829 830 830 831 831 830 830 829 829 830 831 831 832 832 832 833 834 834 835 837 837 837 838 839 839 838 838 839 839 840 841 842 843 844 845 846 848 849 851
795 797 798 800 801 802 803 804 805 806 806 807 807 807 808 808 808 809 810 810 811 811 812 813 813 815 815 815 815 814 814 816 816 816 817 818 819 819 819 820 821 822 823 824 825 826 827 828 829 830 831 831 829 829 828 829 829 829 830 831 832 832 833 834 834 835 836 836 837 838 839 839 839 839 839 839 840 841 842 843 844 845 846 847 849
795 796 798 799 800 802 803 804 805 805 806 806 807 807 807 808 808 809 810 810 811 812 812 813 813 814 815 815 815 815 815 815 815 815 816 817 817 818 818 819 819 820 821 822 824 825 826 827 827 827 829 830 829 828 828 828 828 828 828 829 831 832 832 833 834 834 834 835 836 836 837 838 839 839 840 839 839 840 841 842 843 844 845 846 847
794 796 797 798 800 801 802 803 804 805 805 806 806 807 807 808 809 809 810 810 811 812 812 813 814 814 814 815 815 815 815 814 815 815 815 816 816 817 817 818 818 819 820 821 822 823 824 825 825 825 827 828 828 827 827 828 828 828 827 827 828 830 831 832 833 833 833 833 834 835 835 836 836 837 839 839 840 839 840 841 842 843 844 844 845
794 795 797 798 799 800 801 803 803 804 805 805 805 806 807 808 808 809 810 810 811 812 812 813 814 814 814 815 815 815 815 814 814 815 815 815 815 816 816 817 817 818 819 820 821 821 822 823 823 824 825 826 827 827 827 827 826 827 827 826 826 828 830 831 831 832 832 832 833 833 834 835 835 835 836 837 839 839 838 839 840 841 842 843 844
793 794 795 796 798 799 800 801 802 803 803 804 804 805 806 807 808 809 809 810 811 812 812 813 813 814 814 815 815 815 815 815 815 814 814 814 815 815 815 815 816 816 817 818 819 820 820 821 821 822 823 824 825 826 827 827 826 826 827 826 825 826 828 829 830 830 831 831 831 832 832 833 833 834 834 834 836 837 837 837 839 840 840 840 842
791 793 794 795 796 798 799 800 801 802 803 803 804 805 806 807 808 808 809 810 810 811 812 812 813 813 814 815 815 815 815 815 815 814 814 814 814 814 814 814 814 815 816 817 818 818 819 820 820 821 821 822 822 824 826 827 826 826 827 827 826 825 826 827 828 829 829 830 830 830 831 831 832 832 833 833 834 835 836 836 837 838 838 838 839
789 791 792 794 795 796 798 799 800 801 802 802 803 804 805 806 807 808 808 809 810 811 811 811 812 813 813 814 814 814 814 814 814 814 814 814 814 814 814 814 814 814 815 815 816 816 817 818 819 820 820 821 821 821 823 825 826 827 828 829 827 825 826 825 825 826 826 827 828 828 829 829 830 831 831 831 832 833 834 835 835 836 837 836 837
786 789 791 792 793 795 796 797 799 800 800 802 802 803 804 805 806 807 808 808 809 810 810 811 811 812 813 813 813 813 813 813 813 813 813 813 813 813 813 813 813 814 814 814 814 815 815 816 818 819 819 820 819 819 820 823 826 827 827 828 826 825 825 824 822 822 822 824 825 825 826 827 828 828 829 829 830 831 832 833 834 835 836 835 835
783 786 788 790 791 793 795 795 797 798 799 800 801 802 803 805 806 807 807 808 808 809 810 810 810 811 812 812 812 812 812 812 812 812 812 812 812 811 812 812 813 813 813 814 814 814 814 815 816 817 818 819 818 819 820 821 823 823 823 824 824 824 822 820 820 820 820 821 822 822 823 824 825 826 826 827 828 829 830 831 832 833 834 834 833
780 783 785 787 789 791 793 794 796 797 798 799 800 801 802 804 804 805 806 806 807 808 809 809 810 810 810 810 811 811 812 812 812 812 812 812 812 812 812 812 812 812 813 813 813 814 814 814 815 816 817 817 817 818 819 818 819 820 820 821 821 821 820 819 821 820 818 818 819 820 821 821 823 823 824 824 825 826 827 828 830 831 832 832 832
779 781 783 785 787 789 791 793 794 796 797 798 799 801 801 803 804 804 805 805 806 807 808 808 809 809 809 810 810 810 811 811 811 811 812 812 812 812 812 812 812 812 812 812 812 813 813 813 813 814 814 815 816 816 816 815 816 817 818 819 818 818 819 820 820 819 818 817 817 818 818 819 820 820 821 822 823 823 824 825 827 828 829 830 831
777 779 781 783 785 788 789 791 793 794 795 797 798 800 801 801 803 803 804 805 805 806 807 808 808 809 809 809 809 810 810 810 811 811 811 811 811 812 812 812 812 812 812 812 812 812 812 812 812 812 812 812 813 813 812 812 813 814 816 817 817 816 818 819 818 817 817 817 816 815 815 816 817 817 819 820 820 821 821 822 824 825 826 827 829
775 777 778 781 783 785 787 789 792 793 794 796 797 798 800 800 802 803 803 804 805 806 806 807 808 808 808 809 809 809 809 810 810 810 811 811 811 811 811 811 811 811 811 811 811 811 811 811 810 810 810 809 810 810 809 809 810 811 812 815 815 814 815 816 816 815 815 815 815 813 812 814 814 815 816 818 819 819 819 820 821 823 823 825 826
772 775 777 779 782 784 785 787 790 791 792 794 796 797 798 799 800 802 802 803 804 805 805 806 807 807 808 808 808 809 809 809 809 810 810 810 810 810 810 810 810 810 810 810 810 810 810 809 809 809 808 808 808 808 807 807 807 808 809 811 812 812 812 813 813 813 813 813 813 811 810 811 812 813 814 815 816 817 817 817 818 819 820 821 823
769 773 775 777 780 782 783 785 788 790 791 793 794 796 797 798 799 800 801 802 803 803 804 805 805 806 807 807 808 808 809 809 809 809 809 809 809 809 809 809 809 809 809 809 809 809 808 808 808 808 807 807 806 806 806 805 806 806 806 807 808 808 809 809 809 810 811 810 810 810 809 808 810 811 812 813 813 814 814 815 815 816 817 818 820